(11) Parthenope
ephemeris date magn radius delta ra dec elong phase
Today6 Oct 202211.72.587 AU3.585 AU12h52m-02°16'3.1°1.2°
Opposition5 Jun 20239.52.336 AU1.325 AU16h59m-16°20'173.6°2.8°
(11) Parthenope - 2022-10-06
astro.vanbuitenen.nl


 
-1 year
-1 month
-1 day
Now
+1 day
+1 month
+1 year

The interactive orbit chart above shows the body's path through the solar system and its position at the given date. Green and blue lines are shown perpendicular to the ecliptic plane: Green if the path is above the ecliptic plane, blue if it is below. (Left-click and drag to rotate the view; Right-click and drag to move the view; Use scroll wheel to zoom in our out.)

The orbital elements of Parthenope are:

            e (Eccentricity)                : 0.0994866
            a (Semimajor axis)              : 2.4533108
            i (Inclination)                 : 4.63143
            Ω (Longitude of ascending node) : 125.52630
            ω (Argument of perihelion)      : 195.65853
            M (Mean anomaly)                : 226.64747
            Epoch                           : 2022 Aug 09

            L (Longitude of perihelion)     : 141.13620
            B (Latitude of perihelion)      : -1.24878
            P (Orbital period in years)     : 3.84            
        

The light curve chart below shows the estimated development of the minor planet's magnitude.


The all-sky chart below shows the path of the minor planet over the same period as the light curve. The current position is marked yellow.





The following chart shows the path of the minor planet in the next few days. The field of view is optimized for (~10x50) binoculars and finderscopes. A more printer-friendly version of the same chart can be found below.




Ephemerides:
Date       Time       RA (2000)    DEC (2000)    delta   radius  elong  phase   PA    magn
2022-10-06 00:00 UT   12 52 38.4   -02 16 59     3.585    2.587    3.1    1.2    33   11.7 
2022-10-06 16:39 UT   12 53 46.4   -02 23 54     3.584    2.587    3.1    1.2    27   11.7 
2022-10-07 00:00 UT   12 54 16.4   -02 26 57     3.584    2.586    3.1    1.2    23   11.7 
2022-10-08 00:00 UT   12 55 54.5   -02 36 54     3.583    2.585    3.1    1.2    13   11.7 
2022-10-09 00:00 UT   12 57 32.7   -02 46 51     3.581    2.584    3.3    1.3     4   11.7 
2022-10-10 00:00 UT   12 59 11.0   -02 56 46     3.580    2.584    3.5    1.4   355   11.7 
2022-10-11 00:00 UT   13 00 49.5   -03 06 40     3.578    2.583    3.8    1.5   348   11.8 
2022-10-12 00:00 UT   13 02 28.0   -03 16 34     3.576    2.582    4.1    1.6   342   11.8 
2022-10-13 00:00 UT   13 04 06.7   -03 26 26     3.575    2.581    4.5    1.7   336   11.8 
2022-10-14 00:00 UT   13 05 45.4   -03 36 17     3.573    2.580    4.9    1.9   332   11.8 
2022-10-15 00:00 UT   13 07 24.3   -03 46 07     3.571    2.579    5.3    2.1   328   11.8 
2022-10-16 00:00 UT   13 09 03.3   -03 55 55     3.568    2.578    5.8    2.2   325   11.8 
2022-10-17 00:00 UT   13 10 42.4   -04 05 43     3.566    2.577    6.3    2.4   322   11.8 
2022-10-18 00:00 UT   13 12 21.6   -04 15 29     3.563    2.577    6.8    2.6   320   11.8 
2022-10-19 00:00 UT   13 14 00.9   -04 25 14     3.561    2.576    7.2    2.8   318   11.8 
2022-10-20 00:00 UT   13 15 40.3   -04 34 57     3.558    2.575    7.7    3.0   316   11.8 
2022-10-21 00:00 UT   13 17 19.8   -04 44 38     3.555    2.574    8.3    3.2   315   11.9 
2022-10-22 00:00 UT   13 18 59.4   -04 54 19     3.552    2.573    8.8    3.4   313   11.9 
2022-10-23 00:00 UT   13 20 39.1   -05 03 57     3.549    2.572    9.3    3.6   312   11.9 
2022-10-24 00:00 UT   13 22 18.9   -05 13 34     3.546    2.571    9.8    3.8   311   11.9 
2022-10-25 00:00 UT   13 23 58.9   -05 23 09     3.542    2.570   10.3    4.0   310   11.9 


    Terminology:
            
    delta:  distance between minor planet and earth in AU
    radius: distance between minor planet and sun in AU
    magn:   magnitude (brightness) estimate    
    ra:     right ascension in hours (24h = 360deg)
    dec:    declination in degrees
    elong:  elongation in degrees (angle sun-earth-minor planet)    
    phase:  phase angle in degrees (angle sun-minor planet-earth)        
    AU:     Astronomical Unit (mean distance between earth and sun: 149597870.7 km
    

Orbital elements provided by the MPC (Minor Planet Center).
Calculations by a modified version of AAPlus, a C# implementation of the AA+ project by PJ Naughter from the algorithms presented in the book "Astronomical Algorithms" by Jean Meeus.
NGC2000 dso catalog and star labels from VizieR as provided by the Strasbourg astronomical Data Center.
Tycho2 catalog from the ESO archive.